Rawlins, WY

10:28 AM MST on February 25, 2017 (GMT -0700)
Rawlins Municipal

Weather History for KRWL - February, 2014

Change the Weather History Date:

Tuesday, February 4, 2014

  Actual Average Record
Temperature  
Mean Temperature -2 °F 22 °F  
Max Temperature 14 °F 32 °F 55 °F (1963)
Min Temperature -18 °F 12 °F -30 °F (1982)
Degree Days  
Heating Degree Days 67 43  
Month to date heating degree days 215 173  
Since 1 July heating degree days 4888 4972  
Cooling Degree Days 0 0  
Month to date cooling degree days 0 0  
Year to date cooling degree days 0 0  
Moisture  
Dew Point -4 °F    
Average Humidity 75    
Maximum Humidity 84    
Minimum Humidity 65    
Precipitation  
Precipitation 0.01 in 0.01 in 0.15 in (1979)
Month to date precipitation 0.01 0.05  
Year to date precipitation 0.14 0.41  
Sea Level Pressure  
Sea Level Pressure 29.98 in    
Wind  
Wind Speed 8 mph (NNE)    
Max Wind Speed 16 mph    
Max Gust Speed 20 mph    
Visibility 5 miles    
Events Snow    
T = Trace of Precipitation, MM = Missing Value Source: NWS Daily Summary

Daily Weather History Graph

Daily Weather History Graph

Search for Another Location

Airport or City:

Trip Planner

Search our weather history database for the weather conditions in past years. The results will help you decide how hot, cold, wet, or windy it might be!

Date:

Astronomy

Feb. 04, 2014 Rise Set
Actual Time 7:17 AM MST 5:28 PM MST
Civil Twilight 6:48 AM MST 5:57 PM MST
Nautical Twilight 6:15 AM MST 6:30 PM MST
Astronomical Twilight 5:42 AM MST 7:03 PM MST
Moon 9:52 AM MST (2/4) 11:31 PM MST (2/4)
Length of Visible Light 11h 08m
Length of Day
10h 10m
Waxing Crescent, 29% of the Moon is Illuminated
Feb 4
Waxing Crescent
Feb 6
First Quarter
Feb 14
Full
Feb 22
Last Quarter
Mar 1
New

Hourly Weather History & Observations

Time (MST) Temp. Windchill Dew Point Humidity Pressure Visibility Wind Dir Wind Speed Gust Speed Precip Events Conditions
12:53 AM 12.9 °F - 5.0 °F 71% 29.88 in 10.0 mi Calm Calm - N/A   Overcast
1:53 AM 12.0 °F - 5.0 °F 73% 29.87 in 10.0 mi Calm Calm - N/A   Scattered Clouds
2:53 AM 12.0 °F 5.9 °F 6.1 °F 77% 29.88 in 10.0 mi NW 3.5 mph - N/A   Overcast
3:35 AM 12.2 °F - 6.8 °F 79% 29.72 in 2.5 mi Calm Calm - 0.00 in Snow Light Snow
3:53 AM 12.9 °F - 8.1 °F 81% 29.86 in 2.0 mi Calm Calm - 0.00 in Snow Light Snow
4:03 AM 12.2 °F 2.9 °F 8.6 °F 85% 29.73 in 1.5 mi NE 5.8 mph - 0.00 in Snow Light Snow
4:53 AM 12.0 °F -1.3 °F 8.1 °F 84% 29.88 in 2.0 mi ENE 10.4 mph - 0.00 in Snow Light Snow
5:02 AM 12.2 °F -1.0 °F 8.6 °F 85% 29.73 in 1.2 mi NE 10.4 mph - 0.00 in Snow Light Snow
5:19 AM 12.2 °F -1.0 °F 8.6 °F 85% 29.73 in 1.5 mi NE 10.4 mph - 0.00 in Snow Light Snow
5:53 AM 12.0 °F -2.7 °F 8.1 °F 84% 29.91 in 1.0 mi NE 12.7 mph - 0.00 in Snow Light Snow
6:53 AM 9.0 °F 0.6 °F 3.9 °F 80% 29.96 in 1.2 mi NNE 4.6 mph - 0.01 in Snow Light Snow
7:07 AM 8.6 °F 0.1 °F 3.2 °F 79% 29.76 in 1.5 mi North 4.6 mph - 0.00 in Snow Light Snow
7:53 AM 5.0 °F -6.9 °F -0.0 °F 80% 30.00 in 1.8 mi NNW 6.9 mph - 0.00 in Snow Light Snow
8:00 AM 3.2 °F -10.3 °F -0.4 °F 85% 29.77 in 3.0 mi NNW 8.1 mph - 0.00 in Snow Light Snow
8:11 AM 3.2 °F -10.3 °F -0.4 °F 85% 29.78 in 5.0 mi NNW 8.1 mph - 0.00 in Snow Light Snow
8:24 AM 5.0 °F -9.1 °F -0.4 °F 78% 29.78 in 3.0 mi NNE 9.2 mph - 0.00 in Snow Light Snow
8:36 AM 3.2 °F -10.3 °F -0.4 °F 85% 29.79 in 2.5 mi North 8.1 mph - 0.00 in Snow Light Snow
8:53 AM 3.9 °F -10.4 °F -2.0 °F 76% 30.03 in 3.0 mi North 9.2 mph - 0.00 in Snow Light Snow
8:59 AM 3.2 °F -11.3 °F -2.2 °F 78% 29.80 in 1.8 mi North 9.2 mph - 0.00 in Snow Light Snow
9:48 AM 3.2 °F -14.6 °F -2.2 °F 78% 29.82 in 3.0 mi North 13.8 mph - 0.00 in Snow Light Snow
9:53 AM 3.9 °F -14.3 °F -2.0 °F 76% 30.06 in 2.0 mi North 15.0 mph - 0.00 in Snow Light Snow
10:01 AM 3.2 °F -14.6 °F -2.2 °F 78% 29.82 in 1.2 mi North 13.8 mph - 0.00 in Snow Light Snow
10:14 AM 3.2 °F -14.6 °F -2.2 °F 78% 29.83 in 0.8 mi North 13.8 mph - 0.00 in Snow Light Snow
10:32 AM 3.2 °F -14.6 °F -2.2 °F 78% 29.84 in 1.2 mi North 13.8 mph - 0.00 in Snow Light Snow
10:53 AM 3.0 °F -14.1 °F -2.9 °F 76% 30.09 in 1.0 mi North 12.7 mph - 0.00 in Snow Light Snow
11:25 AM 3.2 °F -13.9 °F -2.2 °F 78% 29.85 in 3.0 mi North 12.7 mph - 0.00 in Snow Light Snow
11:53 AM 3.9 °F -11.3 °F -2.0 °F 76% 30.08 in 6.0 mi North 10.4 mph - 0.00 in   Haze
12:29 PM 3.2 °F -12.2 °F -2.2 °F 78% 29.86 in 3.0 mi North 10.4 mph - 0.00 in Snow Light Snow
12:36 PM 3.2 °F -14.6 °F -2.2 °F 78% 29.86 in 2.0 mi NNW 13.8 mph - 0.00 in Snow Light Snow
12:43 PM 3.2 °F -14.6 °F -2.2 °F 78% 29.86 in 1.8 mi North 13.8 mph - 0.00 in Snow Light Snow
12:53 PM 3.0 °F -15.5 °F -2.9 °F 76% 30.12 in 1.5 mi North 15.0 mph - 0.00 in Snow Light Snow
1:01 PM 3.2 °F -15.3 °F -4.0 °F 72% 29.86 in 1.5 mi North 15.0 mph - 0.00 in Snow Light Snow
1:53 PM 1.9 °F -16.2 °F -4.0 °F 76% 30.14 in 2.0 mi North 13.8 mph - 0.00 in Snow Light Snow
2:29 PM 1.4 °F -13.5 °F -5.8 °F 72% 29.89 in 2.5 mi ENE 9.2 mph - 0.00 in Snow Light Snow
2:44 PM 3.2 °F -11.3 °F -4.0 °F 72% 29.90 in 1.5 mi ENE 9.2 mph - 0.00 in Snow Light Snow
2:53 PM 1.9 °F -12.9 °F -4.0 °F 76% 30.17 in 1.5 mi ENE 9.2 mph - 0.00 in Snow Light Snow
3:22 PM 3.2 °F -11.3 °F -5.8 °F 66% 29.91 in 2.0 mi East 9.2 mph - 0.00 in Snow Light Snow
3:32 PM 1.4 °F -12.5 °F -5.8 °F 72% 29.92 in 1.5 mi ENE 8.1 mph - 0.00 in Snow Light Snow
3:46 PM 1.4 °F -13.5 °F -5.8 °F 72% 29.92 in 3.0 mi ENE 9.2 mph - 0.00 in Snow Light Snow
3:53 PM 1.9 °F -11.8 °F -6.0 °F 69% 30.17 in 6.0 mi ENE 8.1 mph - 0.00 in   Haze
4:07 PM 1.4 °F -12.5 °F -7.6 °F 66% 29.93 in 10.0 mi NE 8.1 mph - N/A   Scattered Clouds
4:53 PM -0.9 °F -14.1 °F -9.0 °F 69% 30.22 in 10.0 mi NE 6.9 mph - N/A   Clear
5:53 PM -8.0 °F -19.2 °F -13.0 °F 79% 30.29 in 10.0 mi East 4.6 mph - N/A   Overcast
6:04 PM -9.4 °F -18.6 °F -14.8 °F 77% 29.98 in 10.0 mi ENE 3.5 mph - N/A   Overcast
6:19 PM -11.2 °F - -16.6 °F 77% 29.98 in 10.0 mi Calm Calm - N/A   Scattered Clouds
6:53 PM -16.1 °F - -22.0 °F 74% 30.38 in 10.0 mi Calm Calm - N/A   Clear
7:53 PM -16.1 °F -32.3 °F -20.9 °F 79% 30.42 in 10.0 mi NE 6.9 mph - N/A   Clear
8:53 PM -13.0 °F -27.0 °F -20.0 °F 71% 30.43 in 10.0 mi NE 5.8 mph - N/A   Partly Cloudy
9:53 PM -9.9 °F -27.5 °F -17.0 °F 71% 30.43 in 10.0 mi NE 9.2 mph - N/A   Clear
10:43 PM -9.4 °F -26.8 °F -16.6 °F 71% 30.04 in 10.0 mi NE 9.2 mph - N/A   Mostly Cloudy
10:53 PM -9.9 °F -26.3 °F -16.1 °F 74% 30.43 in 10.0 mi ENE 8.1 mph - N/A   Mostly Cloudy
11:13 PM -11.2 °F -29.0 °F -16.6 °F 77% 30.05 in 10.0 mi NE 9.2 mph - N/A   Mostly Cloudy
11:53 PM -9.9 °F -27.5 °F -16.1 °F 74% 30.44 in 10.0 mi NE 9.2 mph - N/A   Mostly Cloudy